Location: Los Gatos B&B
(42.6926°N, 77.0646°W)
Time: 20:35:07
(UTC-05:00)

Cosmos 2263 Rocket - Visible Passes

Search period start: 18 February 2018 00:00
Search period end: 28 February 2018 00:00
Orbit: 824 x 848 km, 71.0° (Epoch: 17 February)

Date Brightness Start Highest point End Pass type
(mag) Time Alt. Az. Time Alt. Az. Time Alt. Az.
18 Feb 4.4 05:36:39 10° N 05:41:07 23° NE 05:45:34 10° ESE visible
19 Feb 4.5 05:20:01 10° N 05:24:20 22° NE 05:28:38 10° E visible
20 Feb 4.6 05:03:22 10° N 05:07:31 20° NE 05:11:40 10° E visible
21 Feb 4.7 04:46:45 10° N 04:50:43 19° NE 04:54:42 10° E visible
22 Feb 4.7 04:30:08 10° N 04:33:55 18° NE 04:37:41 10° E visible
22 Feb 2.2 06:12:52 10° NNW 06:18:34 83° WSW 06:24:14 10° SSE visible
22 Feb 3.7 19:21:18 10° SSE 19:23:04 18° SE 19:23:04 18° SE visible
22 Feb 4.4 21:03:57 10° SW 21:04:56 15° SW 21:04:56 15° SW visible
23 Feb 4.8 04:13:32 10° N 04:17:06 17° NE 04:20:40 10° E visible
23 Feb 2.2 05:56:08 10° NNW 06:01:50 89° WSW 06:07:31 10° SSE visible
23 Feb 3.2 19:04:47 10° SSE 19:09:02 23° E 19:09:12 23° E visible
23 Feb 3.2 20:47:08 10° SW 20:51:04 41° WSW 20:51:04 41° WSW visible
24 Feb 4.9 03:56:57 10° N 04:00:18 16° NE 04:03:37 10° E visible
24 Feb 2.3 05:39:24 10° NNW 05:45:06 85° ENE 05:50:47 10° SSE visible
24 Feb 3.3 18:48:18 10° SSE 18:52:21 21° E 18:55:41 13° ENE visible
24 Feb 2.7 20:30:20 10° SW 20:35:48 56° WNW 20:37:35 39° N visible
25 Feb 4.9 03:40:24 10° NNE 03:43:28 15° NE 03:46:33 10° ENE visible
25 Feb 2.3 05:22:40 10° NNW 05:28:22 78° ENE 05:34:03 10° SSE visible
25 Feb 3.4 18:31:51 10° SE 18:35:40 19° E 18:39:30 10° NE visible
25 Feb 2.6 20:13:33 10° SW 20:19:02 61° WNW 20:24:37 10° NNE visible
25 Feb 5.0 22:02:21 10° WNW 22:04:12 12° NW 22:06:04 10° NNW visible
26 Feb 5.0 03:23:51 10° NNE 03:26:39 14° NE 03:29:26 10° ENE visible
26 Feb 2.4 05:05:56 10° NNW 05:11:37 73° ENE 05:17:17 10° SSE visible
26 Feb 3.5 18:15:26 10° SE 18:18:59 18° E 18:22:34 10° ENE visible
26 Feb 2.5 19:56:46 10° SW 20:02:17 66° WNW 20:07:53 10° NNE visible
26 Feb 5.0 21:45:06 10° WNW 21:47:22 12° NW 21:49:39 10° NNW visible
27 Feb 5.0 03:07:21 10° NNE 03:09:50 13° NE 03:12:17 10° ENE visible
27 Feb 2.5 04:49:13 10° NNW 04:54:53 67° ENE 05:00:32 10° SSE visible
27 Feb 2.4 19:40:00 10° SSW 19:45:32 72° WNW 19:51:10 10° NNE visible
27 Feb 5.0 21:27:55 10° WNW 21:30:32 13° NW 21:33:11 10° NNW visible
